Weather History for Ramona, CA

Change the Weather History Date:

Thursday, November 7, 2013

  Actual Average Record
Temperature  
Mean Temperature 66 °F 58 °F  
Max Temperature 87 °F 74 °F 92 °F (2006)
Min Temperature 44 °F 42 °F 33 °F (1994)
Degree Days  
Heating Degree Days 0 7  
Month to date heating degree days 54 46  
Since 1 July heating degree days 206 165  
Cooling Degree Days 1 0  
Month to date cooling degree days 1 4  
Year to date cooling degree days 894 848  
Growing Degree Days 16 (Base 50)    
Moisture  
Dew Point 14 °F    
Average Humidity 19    
Maximum Humidity 33    
Minimum Humidity 5    
Precipitation  
Precipitation 0.00 in 0.04 in 0.25 in (2004)
Month to date precipitation 0.00 0.33  
Year to date precipitation 6.21 12.95  
Since 1 July precipitation 1.71 1.62  
Snow  
Snow 0.00 in - - ()
Month to date snowfall 0.0  
Year to date snowfall 0.0  
Since 1 July snowfall 0.0  
Snow Depth 0.00 in    
Sea Level Pressure  
Sea Level Pressure 30.04 in    
Wind  
Wind Speed 5 mph (NE)    
Max Wind Speed 14 mph    
Max Gust Speed 22 mph    
Visibility 10 miles    
Events      
T = Trace of Precipitation, MM = Missing Value Source: NWS Daily Summary

Daily Weather History Graph

Daily Weather History Graph

Search for Another Location

Airport:

Trip Planner

Search our weather history database for the weather conditions in past years. The results will help you decide how hot, cold, wet, or windy it might be!

Date:

Astronomy

Nov. 07, 2013 Rise Set
Actual Time 6:11 AM PST 4:50 PM PST
Civil Twilight 5:45 AM PST 5:16 PM PST
Nautical Twilight 5:15 AM PST 5:46 PM PST
Astronomical Twilight 4:46 AM PST 6:15 PM PST
Moon 10:21 AM PST (11/7) 9:09 PM PST (11/7)
Length of Visible Light 11h 31m
Length of Day
10h 39m
Waxing Crescent, 24% of the Moon is Illuminated
Nov 7
Waxing Crescent
Nov 9
First Quarter
Nov 17
Full
Nov 25
Last Quarter
Dec 2
New

Hourly Weather History & Observations

Time (PST) Temp. Dew Point Humidity Pressure Visibility Wind Dir Wind Speed Gust Speed Precip Events Conditions
12:53 AM 57.0 °F 5.0 °F 12% 30.08 in 10.0 mi Calm Calm - N/A   Clear
1:53 AM 66.0 °F 1.0 °F 8% 30.06 in 10.0 mi ENE 9.2 mph - N/A   Clear
2:53 AM 68.0 °F -0.9 °F 6% 30.06 in 10.0 mi ENE 11.5 mph - N/A   Clear
3:53 AM 64.9 °F 1.0 °F 8% 30.06 in 10.0 mi ENE 6.9 mph - N/A   Clear
4:53 AM 48.0 °F 14.0 °F 26% 30.08 in 10.0 mi Calm Calm - N/A   Clear
5:53 AM 45.0 °F 17.1 °F 33% 30.09 in 10.0 mi Calm Calm - N/A   Clear
6:53 AM 51.1 °F 19.9 °F 29% 30.10 in 10.0 mi Calm Calm - N/A   Clear
7:53 AM 73.9 °F 9.0 °F 8% 30.09 in 10.0 mi Variable 3.5 mph - N/A   Clear
8:53 AM 79.0 °F 3.9 °F 6% 30.08 in 10.0 mi East 10.4 mph - N/A   Clear
9:53 AM 80.1 °F 5.0 °F 6% 30.08 in 10.0 mi Variable 3.5 mph - N/A   Clear
10:53 AM 82.0 °F 3.9 °F 5% 30.06 in 10.0 mi Variable 3.5 mph - N/A   Clear
11:53 AM 82.9 °F 6.1 °F 5% 30.03 in 10.0 mi Calm Calm - N/A   Clear
12:53 PM 86.0 °F 9.0 °F 5% 30.00 in 10.0 mi ENE 6.9 mph - N/A   Clear
1:53 PM 81.0 °F 19.0 °F 10% 29.99 in 10.0 mi West 12.7 mph - 0.00 in   Clear
2:53 PM 81.0 °F 12.0 °F 7% 29.98 in 10.0 mi WNW 9.2 mph - N/A   Clear
3:53 PM 75.9 °F 12.9 °F 9% 29.99 in 10.0 mi West 10.4 mph - N/A   Clear
4:53 PM 64.0 °F 21.0 °F 19% 30.01 in 10.0 mi WNW 8.1 mph - N/A   Clear
5:53 PM 62.1 °F 19.0 °F 19% 30.03 in 10.0 mi Calm Calm - N/A   Clear
6:53 PM 51.1 °F 24.1 °F 35% 30.04 in 10.0 mi Calm Calm - N/A   Clear
7:53 PM 53.1 °F 25.0 °F 34% 30.02 in 10.0 mi Calm Calm - N/A   Clear
8:53 PM 51.1 °F 27.0 °F 39% 30.02 in 10.0 mi East 4.6 mph - N/A   Clear
9:53 PM 50.0 °F 28.0 °F 43% 30.01 in 10.0 mi Calm Calm - N/A   Clear
10:53 PM 48.0 °F 28.0 °F 46% 30.01 in 10.0 mi SE 3.5 mph - N/A   Clear
11:53 PM 46.0 °F 28.0 °F 50% 30.01 in 10.0 mi Calm Calm - N/A   Clear